TITAN 3C TRANSTAGE DEB, 8832

Orbit data source: Space-Track

TITAN 3C TRANSTAGE DEB, 8832 is space debris in GEO originally from a launch on Mon, 15 Mar 1976 UTC launched from the Air Force Eastern Test Range (AFETR). Debris objects in space refer to the collection of defunct objects orbiting the Earth. Examples of debris include non-operational satellites, rocket bodies, and fragments generated from explosions, collisions, or faulty payload assembly.

Not visible in the next 10 days
TITAN 3C TRANSTAGE DEB details
Identifier
8832, 1976-023J
Orbit
GEO
Last TLE update23 hours ago
Origin
Flag of USSAMSO (US)
ManufacturerTRW
Mission LES 9 operational debris"
Bus & MotorUnknown
Mass~100 kg wet, ~100 kg dry
Launch date (UTC)
1976-03-15 (49 years ago)
Launch vehicleUnknown
Launch site
Air Force Eastern Test Range (AFETR)
Object type
Payload
Rocket body
Debris
Shape & HBRUnknown
Radar Cross SectionMedium (>0.1 m² and <1 m²)

Expand to show TLE details & history

TLE from 23 hours ago
0 TITAN 3C TRANSTAGE DEB
1 08832U 76023J   25035.33264310 -.00000289  00000-0  00000-0 0  9996
2 08832  20.8235  48.9994 0135877  84.4322 286.9955  0.98261792112710
Epoch: 2025-02-04T07:59Z
Definitive object data (Epoch: 2025-02-04T07:59:00.363Z)
Latitude3.50044°
Longitude163.79894°
Altitude36,196.163 km
Speed3.066 km/s
True Right ascension03h 53m 09s
True Declination3° 29' 49"
Sunlit
Object was in daylight at TLE epoch
Visualization TLE readout
Latitude-5.18342°
Longitude140.7512°
Altitude36,445.108 km
Speed3.048 km/s
Apparent Right ascension01h 55m 15s
Apparent Declination-10° 20' 45"
Sunlit
Object is in daylight
Visualization observer readout
Local Sidereal Time08:46:41
Azimuth270.166° WNW
Elevation-16.451°
Doppler factor1
Orbital elements
Apogee altitude36,941.234 km
Perigee altitude35,779.794 km
Semi-major axis42,738.651 km
Eccentricity0.0135877
Inclination20.8235°
RAAN48.9994°
Arg. of periapsis84.4322°
True anomaly285.49921°
Mean anomaly286.9955°
Eccentric anomaly286.24808°
Mean motion0.24565 °/min
BSTARUnknown
Orbital period1465.52 mins
Loading historical data...
8832 neighbors
Authenticating...
Loading maneuver chart data...
Loading historical data...
Loading historical data...
Loading historical data...
Loading historical data...
Loading historical data...
Loading historical data...
Loading historical data...

TITAN 3C TRANSTAGE DEB Visibility forecast

Observer location: undefined°, undefined

TITAN 3C TRANSTAGE DEB is not visible in the next 10 days
Span
Click to sort rows by Start time (UTC) header in descending order
Start Az.
Max El. time (UTC)
Max El. Az.
Max El.
End time (UTC)
End Az.
|